Location: Chmeln�
(49.6483°N, 14.9871°E)
Time: 08:56:45
(UTC+00:00)

USA 234 - Pass Details

Date: 18 September 2020
Orbit: 1102 x 1106 km, 123.0° (Epoch: 16 October)

Event Time Altitude Azimuth Distance (km) Brightness Sun altitude
Rises 20:15:25 0° 57° (ENE) 3,927 6.0 -28.6°
Enters shadow 20:16:06 - 57° (ENE) 3,661 5.9 -28.7°
Exits shadow 20:19:21 18° 57° (ENE) 2,417 4.9 -29.1°
Maximum altitude 20:24:28 84° 330° (NNW) 1,115 3.2 -29.7°
Drops below altitude 10° 20:31:01 10° 244° (WSW) 2,961 5.7 -30.4°
Sets 20:33:29 0° 244° (WSW) 3,917 6.3 -30.7°
